Simultaneous Nadir Overpasses (SNOs) Predictions

Prediction of SNOs between GOES-15 and LANDSAT-8 Satellite Orbit:

Table of predicted SNOs for the next 14.0 days since TLE Epoch: 7/21/2023
Index Date Time (GOES-15) GOES-15 Lat,Lon LANDSAT-8 Lat,Lon Distance(km) Time Diff (sec)
1 07/23/2023 10:52:53 0.01, 168.82 0.13, 169.44 70.51 80
2 07/23/2023 23:16:50 0.04, 168.26 0.90, 164.27 454.28 80
3 07/25/2023 23:02:08 0.01, 166.25 -0.18, 167.13 100.11 80
4 07/26/2023 11:26:14 -0.06, 165.76 -0.85, 161.92 435.73 80
5 07/28/2023 11:11:31 -0.03, 163.75 0.18, 164.79 118.09 80
6 07/28/2023 23:35:27 0.08, 163.19 0.84, 159.61 407.00 80
7 07/30/2023 23:20:45 0.05, 161.19 -0.21, 162.48 146.30 80
8 07/31/2023 11:44:50 -0.10, 160.70 -0.81, 157.27 389.68 80
9 08/02/2023 11:30:07 -0.07, 158.70 0.26, 160.13 163.65 80
10 08/02/2023 23:54:04 0.12, 158.14 0.77, 154.96 361.47 80
